SCP
2 3 4 5 4 2 0 0 0 0 0 0 0 0 0 0 0 0 0 1 1 1 0 1 1 1 1 1 1 1 1 1 1 1 1 0 0 0 0 0 0 0 0 0 0 0 0 0 1
2 3 4 5 3 1 0 0 0 0 0 0 0 0 0 0 0 0 0 1 1 1 1 1 1 1 1 1 1 1 1 1 1 0 1 1 1 0 0 0 0 0 0 0 0 0 0 0 1
3 4 4 4 2 1 0 0 0 0 0 0 1 1 1 0 0 0 0 1 1 1 1 1 1 1 1 1 1 1 1 1 0 0 0 1 1 1 0 0 0 0 0 0 0 0 0 0 1
5 4 3 2 1 0 0 0 0 0 0 1 1 1 1 0 0 0 1 1 2 2 2 2 1 1 1 0 0 0 0 0 0 0 0 0 0 0 0 0 0 0 0 0 0 0 0 0 0
5 4 2 1 0 0 0 0 0 0 0 1 2 2 1 0 0 0 1 1 2 2 2 2 1 1 1 0 0 0 0 0 0 0 0 0 0 0 0 0 0 0 0 0 0 0 0 0 0
3 2 1 1 0 0 0 0 0 0 0 1 1 2 1 1 0 0 1 1 1 2 2 2 1 1 1 0 0 0 0 0 0 0 0 0 0 0 0 0 0 0 0 0 0 0 0 0 0
1 1 1 0 0 0 0 0 0 0 0 1 1 1 1 1 1 0 1 1 2 2 2 2 1 1 1 1 0 0 0 0 0 0 0 0 0 0 0 0 0 0 0 0 0 0 0 0 0
0 0 0 0 0 0 0 0 1 1 1 1 1 2 2 1 1 1 1 1 2 2 2 2 2 1 1 1 0 0 0 0 0 0 0 0 0 0 0 0 0 0 0 0 0 0 0 0 0
0 0 0 0 0 0 0 1 1 1 1 1 2 2 2 2 1 1 1 2 2 3 3 2 2 1 1 1 1 0 0 0 0 0 0 0 0 0 0 0 0 0 0 0 0 0 0 0 0
0 0 0 0 0 0 0 0 1 1 2 2 2 2 2 2 1 1 1 2 3 3 3 3 2 1 1 1 1 1 0 0 0 0 0 1 0 1 1 1 1 0 0 0 0 0 0 0 1
0 0 0 0 0 0 0 0 1 1 2 2 2 2 2 2 2 2 2 2 3 4 3 3 2 1 1 1 1 1 1 1 1 1 1 1 1 1 1 1 1 0 0 0 0 0 1 1 1
0 0 0 0 0 0 0 1 1 2 2 3 2 2 2 2 2 3 3 4 4 4 4 3 3 2 2 2 1 1 1 1 1 1 1 1 1 1 1 1 1 1 0 0 0 0 1 1 1
0 0 0 0 0 0 1 1 1 2 3 3 2 2 2 2 2 3 5 5 5 4 4 4 3 3 2 2 2 1 1 1 1 1 1 1 1 1 1 1 1 1 1 1 1 1 1 1 1
0 0 0 0 0 1 1 1 2 3 3 3 2 2 2 3 2 3 5 6 6 5 5 4 4 3 3 2 2 1 1 1 1 1 1 1 1 1 1 1 1 1 1 1 1 1 1 1 0
0 0 0 0 0 1 1 1 2 3 3 3 2 2 3 3 3 3 4 5 6 6 5 4 4 4 3 3 2 1 1 1 1 1 1 1 1 1 1 1 1 1 1 1 1 1 1 1 1
0 0 0 0 0 0 1 1 2 3 3 2 2 2 3 3 3 3 4 4 5 5 5 5 4 5 5 4 2 1 1 1 2 2 1 1 1 1 1 1 1 1 1 1 1 1 1 1 1
0 0 0 0 0 0 1 1 1 2 3 3 2 2 3 4 5 4 4 4 5 5 5 5 5 5 6 5 3 2 1 1 1 2 2 1 1 1 2 2 1 1 1 1 1 1 1 1 1
0 0 0 0 0 0 0 1 1 2 3 3 3 2 3 4 5 5 4 4 5 5 6 6 6 6 6 5 4 2 2 1 1 2 2 2 2 2 2 2 2 1 1 1 1 1 1 2 2
0 0 0 0 0 0 0 1 1 2 2 3 3 2 3 4 6 6 5 4 4 5 6 6 6 6 5 5 4 4 3 2 2 2 3 3 3 2 2 2 2 2 2 2 2 2 2 2 3
0 0 0 0 0 0 1 1 1 2 2 2 2 2 3 4 6 9 9 6 5 5 6 6 6 6 6 5 5 5 4 3 2 2 3 4 3 2 2 2 2 2 2 2 2 2 2 3 4
0 0 0 0 0 0 1 1 1 1 1 2 2 2 2 4 7 11 12 9 5 5 6 6 6 6 6 6 6 5 4 3 3 3 4 4 3 3 2 2 2 2 2 2 2 2 3 3 4
0 0 0 0 0 0 0 1 1 1 1 1 1 2 2 4 7 12 13 9 5 5 6 6 6 6 6 6 6 6 5 4 4 4 4 4 4 3 3 3 3 2 2 3 3 3 3 4 3
0 0 0 0 0 0 0 1 1 1 1 1 2 2 2 4 6 10 10 8 6 5 6 7 7 6 6 5 5 5 5 4 4 4 4 4 4 3 3 3 3 3 3 3 4 4 4 4 3
0 0 0 0 0 0 0 1 1 1 1 1 2 2 3 4 6 7 8 8 6 5 6 7 8 8 7 5 5 5 5 4 4 4 5 4 4 3 3 3 3 3 3 3 4 4 4 4 3
0 0 0 0 0 0 0 0 1 1 1 1 2 2 3 4 5 6 7 7 6 6 7 8 9 9 7 6 5 5 5 4 4 4 4 5 4 3 3 3 3 3 3 3 3 4 4 4 4
0 0 0 0 0 0 0 0 1 1 1 1 2 2 3 4 5 6 7 7 6 6 6 8 9 9 7 7 6 5 4 4 4 4 4 5 4 4 3 3 3 3 3 3 3 4 4 4 4
0 0 0 0 0 0 0 0 1 1 1 1 2 2 3 4 5 5 6 6 5 5 6 8 9 9 7 7 7 6 5 4 3 3 4 4 4 4 3 3 4 4 5 5 4 4 5 4 3
0 0 0 0 0 0 0 0 1 2 2 1 2 3 3 3 4 5 5 5 5 5 6 8 9 8 7 7 7 6 5 4 3 3 3 4 4 3 3 4 4 5 6 7 6 6 5 4 3
0 0 0 0 0 0 0 0 1 2 2 2 2 3 4 4 5 6 7 6 6 6 7 8 8 7 6 6 6 7 6 5 4 3 3 4 3 3 4 4 4 4 5 6 6 5 5 4 3
0 0 0 0 0 0 0 0 1 1 2 2 3 4 4 5 6 7 8 8 7 7 7 8 8 6 6 6 7 8 7 5 4 4 4 4 3 3 4 4 4 3 4 4 5 4 4 4 3
Wind_Speed
9 11 10 7 4 5 15 15 14 14 15 14 15 15 17 15 12 12 12 15 16 15 13 12 11 11 11 10 10 11 11 10 10 11 10 10 10 11 11 11 10 10 11 10 10 10 11 11 11
9 12 10 5 2 10 14 13 14 13 12 14 17 18 18 18 16 15 13 14 16 16 13 13 12 12 11 11 10 10 10 10 10 10 10 10 10 10 10 10 9 10 10 10 10 10 11 11 11
11 15 7 1 10 13 15 13 12 12 11 14 17 17 14 13 14 13 13 15 15 15 14 14 13 12 12 11 10 10 10 10 10 10 9 9 9 9 9 9 9 9 10 10 10 10 11 11 11
8 6 3 6 16 16 14 12 12 13 12 14 15 13 13 12 14 14 15 16 16 17 16 14 13 13 12 11 10 10 10 10 9 9 9 9 9 9 9 9 9 9 9 10 10 10 11 11 10
8 4 3 11 17 15 13 13 13 13 14 17 18 16 15 15 16 14 13 14 15 17 16 14 13 12 12 11 10 10 10 9 9 9 8 8 8 9 9 9 9 8 9 9 10 10 10 10 9
5 2 4 12 15 13 12 13 13 14 15 17 18 17 13 13 13 12 13 13 15 16 16 14 13 12 11 11 10 10 9 9 9 8 8 8 8 9 9 9 9 8 8 9 9 9 9 9 7
3 3 7 13 14 13 12 13 12 13 12 13 16 15 12 12 11 11 11 12 13 16 15 13 12 11 11 11 10 9 9 8 8 8 8 8 9 9 9 9 9 8 8 8 8 8 8 7 6
2 3 6 12 13 13 13 13 13 13 11 10 11 12 14 14 11 11 11 11 11 12 13 12 12 11 11 10 10 9 9 8 7 7 8 8 9 9 9 9 9 9 8 8 8 8 8 7 6
2 4 8 11 11 11 12 13 12 11 12 11 12 16 17 16 14 12 10 10 9 9 9 10 11 10 10 11 11 10 9 8 7 7 8 7 5 7 7 9 10 9 8 7 7 7 7 7 6
3 6 12 10 11 10 10 11 11 10 11 14 16 18 17 15 13 12 11 10 9 8 8 7 8 8 8 8 9 6 7 7 6 5 7 5 4 4 7 10 10 9 7 7 7 7 7 6 4
7 9 10 9 10 9 9 10 9 10 11 14 17 17 16 14 12 11 11 10 10 9 7 7 6 5 5 5 6 4 3 4 5 4 4 4 3 4 6 5 5 5 6 5 6 6 4 4 3
6 8 7 8 8 8 9 10 10 11 13 15 16 17 15 13 11 10 10 10 10 9 7 7 6 5 4 3 3 3 3 4 4 4 4 3 2 2 4 3 4 4 3 3 3 3 4 4 3
4 5 5 6 7 9 7 8 10 13 15 16 17 16 15 13 11 9 9 9 9 8 7 7 7 5 4 3 1 2 2 3 4 4 3 3 3 3 3 3 3 3 3 4 3 3 3 2 3
2 1 2 4 6 8 7 5 8 13 14 15 15 14 14 12 11 10 9 8 8 8 7 7 7 6 4 2 1 1 1 2 2 4 5 3 2 2 3 3 2 2 2 2 3 4 3 3 2
4 4 4 4 6 9 8 4 6 13 13 13 13 12 12 11 10 10 9 8 8 8 7 7 7 7 6 4 4 2 2 3 1 3 4 4 2 3 3 2 3 3 3 3 3 3 2 3 3
8 8 4 4 5 8 7 6 9 12 12 12 12 12 12 10 11 10 10 8 8 8 8 7 7 8 6 4 3 2 1 1 2 2 3 4 3 3 2 2 2 2 2 3 3 2 3 3 2
10 7 5 4 4 4 5 7 10 12 12 11 11 12 12 11 10 10 10 9 8 7 7 6 4 7 7 6 4 2 1 0 1 1 2 3 4 4 3 2 2 2 2 2 3 3 2 2 2
7 5 4 4 4 3 5 7 11 11 12 12 11 12 12 11 10 10 10 10 8 8 7 7 5 5 5 5 3 2 2 2 2 2 2 3 3 4 3 3 3 3 1 1 1 1 2 1 2
7 7 5 2 3 3 4 6 9 11 11 11 12 12 12 12 12 11 11 11 10 9 8 7 7 6 5 4 4 3 3 3 3 3 4 4 4 4 3 2 2 2 2 2 2 2 3 2 2
8 8 8 3 3 3 4 4 8 11 11 11 12 13 13 13 13 12 11 11 11 10 8 8 7 7 6 4 3 3 3 2 3 2 3 4 4 3 4 3 3 3 2 2 3 2 2 2 3
10 9 8 5 3 6 5 4 5 8 11 11 12 13 14 15 14 13 12 11 11 10 10 8 8 7 7 6 4 3 2 1 1 2 2 3 4 4 3 3 3 2 3 3 3 3 4 3 3
10 8 7 8 8 7 7 4 6 8 10 12 12 13 14 14 15 14 13 12 11 11 10 8 8 7 7 6 5 5 4 3 3 2 2 3 3 3 4 4 3 3 3 3 4 4 3 3 3
10 8 7 9 10 10 9 6 6 10 9 11 13 14 14 14 15 14 13 12 11 11 11 9 8 7 6 6 5 4 4 3 2 2 2 2 2 3 4 4 3 3 3 3 3 3 4 3 3
10 10 9 10 10 11 11 8 5 7 8 9 12 12 13 13 14 14 13 11 10 10 10 10 9 7 7 6 5 5 4 3 2 3 2 2 2 3 4 4 3 3 3 3 3 3 4 4 4
12 10 8 9 9 9 10 7 4 7 9 9 10 12 12 13 14 14 13 12 10 10 10 10 10 8 8 7 6 5 4 4 4 3 3 3 2 2 3 3 2 3 3 4 4 4 4 5 5
13 14 11 9 8 5 5 6 4 8 7 7 9 11 12 13 13 14 13 12 10 10 10 10 10 9 8 7 6 4 4 3 3 3 2 2 2 1 2 2 3 3 4 5 4 4 5 5 5
15 14 15 14 14 10 7 7 7 8 9 8 9 11 11 12 13 15 14 13 12 11 10 10 10 9 9 8 6 5 4 3 2 2 3 2 2 2 2 2 3 4 4 4 3 3 4 4 4
17 14 10 11 10 11 8 8 6 11 11 10 10 11 10 11 10 12 13 13 12 11 9 9 9 8 8 8 7 6 5 4 3 2 2 2 1 1 1 2 3 3 4 4 3 4 4 4 4
15 15 12 9 9 10 8 3 4 6 7 8 9 10 10 11 12 10 10 12 12 12 11 10 10 9 8 7 6 5 6 5 5 3 3 2 2 2 2 2 3 3 3 3 3 4 3 3 3
16 16 15 10 8 10 10 4 5 8 8 8 7 9 8 9 10 12 11 10 11 12 12 11 10 10 9 7 6 6 5 5 4 4 3 3 3 3 3 3 3 3 3 2 2 3 3 2 3
Wind_Direction
211 216 215 234 237 74 66 64 67 66 63 59 60 68 64 60 76 94 114 118 116 117 120 116 108 106 105 103 101 101 101 101 101 101 99 99 100 100 100 100 99 102 105 109 112 113 113 111 109
240 233 227 240 63 73 72 69 69 71 76 74 70 74 74 74 86 102 114 121 123 123 122 112 109 106 105 105 103 103 103 102 103 102 102 101 100 100 102 102 101 103 106 111 113 116 117 116 113
246 252 257 147 64 68 76 79 82 81 81 84 77 70 73 88 99 111 126 129 121 113 109 111 113 109 108 107 107 105 104 103 102 102 102 103 103 104 104 103 103 104 108 111 114 117 118 118 119
249 247 234 79 75 74 79 85 93 91 87 89 91 81 78 90 103 118 131 126 122 120 116 115 116 114 112 110 109 105 106 106 104 105 106 107 109 109 108 105 105 107 110 113 115 117 118 120 125
250 263 70 81 79 78 81 81 81 82 81 84 89 93 90 96 110 124 125 126 121 117 117 122 121 118 117 115 112 109 109 110 112 113 112 112 112 112 112 109 109 109 113 117 118 119 121 126 131
270 263 84 83 81 80 84 88 90 90 95 102 106 103 100 111 119 126 124 121 119 118 117 124 126 125 123 121 118 115 113 113 115 118 120 120 118 118 117 115 115 116 118 121 123 124 126 128 136
284 37 74 87 86 81 78 83 85 88 86 95 109 111 122 125 123 122 116 115 121 123 128 137 138 134 131 129 125 122 119 118 120 124 128 129 128 127 126 123 122 123 122 125 127 128 132 138 146
319 74 77 80 84 84 83 83 81 87 86 96 115 122 134 132 133 122 117 114 118 125 134 142 145 144 147 140 137 134 134 132 134 138 142 142 138 136 138 133 129 129 130 131 133 134 138 145 158
360 59 71 76 82 86 92 96 95 92 95 80 81 114 129 137 136 132 127 122 124 126 134 143 142 151 154 148 145 151 150 152 157 161 162 162 166 152 150 134 137 138 141 142 143 146 150 159 178
58 73 72 77 85 89 89 98 112 112 104 99 98 111 128 141 145 148 145 141 140 137 131 136 142 149 151 143 144 161 166 161 191 172 172 183 180 146 134 138 146 151 155 157 160 164 170 185 187
52 68 78 82 85 91 95 91 100 113 113 121 126 132 142 147 153 153 149 150 145 145 143 140 133 130 127 129 153 158 154 158 182 165 163 168 149 141 137 150 155 167 174 179 164 180 197 205 198
63 69 76 79 88 87 85 90 86 90 100 118 131 140 147 155 158 157 153 149 141 143 145 133 120 102 79 85 121 147 158 163 154 154 183 152 151 165 148 157 161 171 176 172 178 193 203 202 193
69 77 85 98 95 87 82 89 90 98 108 118 132 144 153 159 160 156 140 136 137 143 143 122 114 102 90 65 3 150 149 152 149 155 173 159 164 156 146 149 154 170 166 168 183 200 198 193 201
18 64 118 122 112 108 93 96 109 113 120 128 139 149 157 159 158 145 141 142 142 148 144 135 135 132 134 146 237 336 174 132 161 158 156 168 156 140 145 145 160 176 180 177 182 188 185 201 207
283 257 207 165 140 123 110 104 122 128 132 140 146 152 152 156 154 151 151 150 150 150 150 150 155 152 163 176 196 202 217 161 171 138 147 160 164 156 154 162 176 195 183 176 190 196 181 200 207
244 246 227 173 150 144 145 144 153 143 145 147 152 152 154 158 160 156 153 155 152 153 155 176 175 157 165 185 199 226 233 132 146 156 154 159 173 168 168 178 188 183 185 185 188 204 190 203 207
247 234 210 181 157 164 155 143 153 154 154 156 159 156 158 163 165 158 157 156 155 152 156 170 169 158 169 180 187 223 207 102 169 149 155 168 183 183 188 193 182 198 199 198 207 179 194 200 209
268 254 210 190 156 187 158 152 159 162 163 163 164 160 162 167 171 163 164 160 157 155 158 166 175 166 171 174 178 207 206 190 203 199 178 177 193 194 196 205 196 209 196 199 211 170 192 220 222
286 294 292 236 148 227 190 166 166 166 172 168 168 166 168 171 172 167 169 166 165 162 165 169 178 174 179 185 184 190 200 206 202 206 187 189 204 195 197 235 171 198 204 208 212 199 204 220 231
265 266 265 239 158 255 248 200 174 169 176 172 172 172 173 172 170 168 173 173 171 169 170 172 178 179 186 188 187 191 195 212 205 208 183 196 203 200 205 204 205 194 197 220 228 219 217 230 219
255 259 275 281 233 233 248 249 186 179 171 172 175 175 175 176 172 171 177 178 175 173 177 182 180 180 185 185 187 190 174 197 221 202 194 208 209 214 223 199 214 203 205 207 214 220 217 228 241
256 259 266 274 274 268 247 229 193 197 184 176 176 177 176 175 171 172 177 180 180 177 176 173 174 179 177 181 194 196 189 197 204 197 201 211 217 221 217 211 209 215 231 208 218 218 223 227 240
264 279 273 271 271 273 257 250 182 191 191 179 178 180 176 172 169 171 175 177 179 175 172 171 168 174 174 183 190 192 203 203 194 181 195 207 214 220 223 215 203 206 228 229 234 231 228 229 234
260 267 263 265 265 260 257 256 178 186 178 184 180 173 167 166 165 166 168 168 172 170 167 166 164 170 174 185 193 192 202 200 199 193 191 204 212 212 217 222 200 205 221 229 232 235 236 239 244
235 245 245 239 242 250 250 244 170 162 165 176 163 158 160 163 165 163 166 166 168 168 166 162 161 169 177 186 193 195 199 203 207 210 204 211 221 199 194 213 192 216 228 227 227 234 241 241 243
228 236 243 254 251 250 254 249 188 152 150 150 150 150 157 164 166 163 165 165 164 169 168 162 162 169 178 184 186 188 193 209 198 204 222 221 230 214 188 201 203 223 233 240 229 239 239 238 241
237 236 248 257 264 263 218 217 168 156 153 161 159 151 163 165 163 161 165 165 165 170 168 163 159 167 175 180 176 182 188 198 195 195 206 215 218 232 205 211 216 227 234 244 244 243 249 247 243
242 246 252 258 271 278 253 218 198 162 162 166 168 159 156 153 159 161 162 163 164 167 164 159 158 164 171 174 178 179 180 184 190 211 207 209 233 257 251 244 242 242 238 233 238 251 245 243 249
226 239 252 267 271 271 273 279 117 150 155 161 167 153 159 161 165 157 160 161 163 165 163 163 158 162 169 173 174 162 168 180 185 191 203 203 222 235 245 253 259 259 254 248 242 255 259 255 257
233 234 234 240 252 273 278 258 163 165 161 164 162 148 154 159 155 152 159 164 167 168 165 164 164 169 171 168 166 166 168 173 184 183 185 194 207 223 229 238 253 264 269 271 265 272 273 267 269